Location: Possagno
(45.8500°N, 11.8667°E)
Time: 08:15:03
(UTC+00:00)

STARLINK-2735 - Pass Details

Date: 30 July 2021
Orbit: 546 x 548 km, 53.1° (Epoch: 22 September)

Event Time Altitude Azimuth Distance (km) Brightness Sun altitude
Rises 19:20:00 0° 297° (WNW) 2,688 9.5 -6.2°
Reaches altitude 10° 19:22:22 10° 287° (WNW) 1,795 7.7 -6.5°
Maximum altitude 19:26:02 33° 223° (SW) 920 4.9 -7.1°
Drops below altitude 10° 19:29:41 10° 159° (SSE) 1,788 5.7 -7.6°
Enters shadow 19:30:25 - 155° (SSE) 2,055 6.0 -7.7°
